RH
87 87 86 87 87 88 90 91 94 95 96 98 98 100 101 101 101 100 96 92 87 83 80 78 78 76 70 57 45 38 33 31 33 36 41 46 49 50 50 53 55 56 58 60 61 63 66 70 70 66 63 59 54 54 57 61 65 66 63 61 63 65 66 73 71 49 32 22 20 50 91 93 79 86 97 99 101 100 99 100 100 99 99 98 96
87 86 87 89 90 92 94 95 98 99 99 100 100 100 100 99 101 102 99 95 90 85 80 77 76 75 73 67 58 51 46 42 41 42 44 47 50 50 48 49 53 55 57 57 57 59 62 64 66 67 66 61 55 54 56 60 65 65 64 63 63 63 63 71 80 69 51 39 24 27 71 104 95 83 90 97 100 100 99 100 100 100 99 100 99
87 88 90 92 94 97 98 99 101 101 100 100 100 100 100 100 100 102 101 95 90 86 80 75 74 73 72 70 65 61 57 54 52 50 50 51 53 52 49 47 49 53 57 56 54 55 57 58 61 65 66 63 60 60 60 62 65 63 62 63 62 62 65 67 72 74 67 58 45 27 41 85 105 95 92 97 99 99 100 100 100 99 99 100 100
88 90 93 96 96 98 99 100 100 100 100 100 100 100 100 100 100 101 101 96 89 85 80 75 72 71 70 69 67 65 63 61 59 57 55 55 55 52 49 45 45 50 56 55 52 53 53 53 58 63 64 63 63 65 65 64 64 63 61 62 63 63 70 74 72 74 75 71 65 46 31 56 93 102 98 98 100 100 99 99 100 100 99 100 100
91 93 95 97 96 96 97 99 99 99 99 100 100 100 100 100 100 100 101 98 91 84 79 75 72 69 68 67 66 66 64 63 62 60 58 56 51 47 44 42 42 48 55 54 52 52 50 50 55 60 64 65 65 67 69 68 66 65 62 60 64 68 74 82 81 76 77 78 76 65 42 39 67 93 101 100 98 99 100 99 100 100 100 99 99
93 94 95 95 95 94 94 97 99 100 100 100 100 100 100 100 100 100 101 101 97 88 80 75 71 69 67 65 65 64 63 62 61 60 58 55 49 44 43 41 41 47 52 51 50 51 49 50 54 59 65 67 68 68 69 69 67 67 66 63 69 77 81 86 85 79 81 85 85 81 64 43 46 69 91 100 99 98 99 100 100 100 100 100 100
89 89 89 91 95 95 93 96 99 101 101 100 100 100 100 100 100 100 100 100 101 97 90 81 73 68 65 63 62 60 58 58 57 57 56 51 46 43 42 40 39 45 48 48 50 50 48 51 54 59 66 68 68 69 69 72 74 73 74 76 82 88 90 87 85 83 86 88 89 88 78 61 48 50 68 87 97 99 99 100 100 100 100 100 100
88 88 88 90 95 96 94 94 96 100 101 101 101 100 100 100 100 100 100 99 100 100 99 95 87 78 70 64 62 60 58 57 55 55 55 52 47 42 38 37 38 42 44 45 48 48 48 53 56 60 68 69 69 73 74 75 82 85 88 92 95 96 94 90 86 87 90 90 89 86 82 75 63 52 52 65 83 95 99 99 98 99 100 99 99
90 91 92 93 95 96 96 93 92 97 100 101 101 100 100 100 100 100 100 100 100 100 100 101 99 95 87 78 70 64 60 60 58 56 54 51 48 43 38 37 37 39 42 44 46 48 50 54 58 63 69 69 70 76 80 80 87 95 98 101 99 95 96 98 95 92 93 91 86 85 90 88 75 62 53 52 65 83 93 98 100 100 100 99 99
90 92 94 97 98 98 98 94 92 95 98 100 101 100 100 100 100 100 101 100 101 100 100 100 100 100 99 95 89 79 69 62 58 57 55 52 49 45 41 39 38 38 40 43 45 49 52 56 61 66 69 70 72 78 81 84 93 100 101 102 100 96 98 103 98 92 92 91 86 88 96 93 80 70 61 52 54 66 77 88 97 99 100 100 99
86 87 92 97 100 101 100 95 91 94 98 100 100 100 100 100 100 100 101 101 101 102 101 101 100 100 100 101 100 96 89 78 67 59 55 53 52 49 45 42 41 40 41 45 48 52 57 61 64 67 68 70 76 82 84 87 95 101 100 101 101 99 100 102 97 93 91 89 88 93 98 95 86 80 72 60 54 57 64 73 84 91 96 98 98
80 81 85 92 99 102 102 97 91 93 99 100 100 101 101 100 100 100 100 100 100 101 101 101 100 99 98 99 100 101 101 98 90 79 67 57 52 50 49 47 46 46 47 50 54 57 60 64 64 66 69 72 78 84 86 89 97 101 101 102 102 101 101 100 97 95 91 88 89 92 96 98 94 89 82 72 61 55 56 61 68 77 84 90 93
77 80 82 86 94 100 102 98 92 92 98 101 100 101 102 100 100 100 100 100 100 100 100 100 101 98 95 95 97 99 100 99 99 97 91 80 67 58 54 52 52 53 54 55 58 60 61 63 63 64 68 75 81 86 88 92 98 102 101 101 101 101 101 98 95 93 89 88 89 89 92 97 95 90 87 83 74 65 58 54 57 64 71 78 84
78 79 80 82 88 94 98 97 91 90 96 99 99 101 102 101 101 100 100 100 100 100 100 99 101 101 98 97 95 94 96 95 94 95 96 95 90 80 71 65 60 59 59 58 59 60 61 61 61 64 70 78 84 89 92 96 99 101 100 100 99 101 101 96 93 94 91 89 91 92 96 100 99 93 90 89 88 82 69 57 52 53 57 64 73
76 76 77 79 83 89 93 94 91 89 91 95 98 99 99 100 101 101 101 100 99 101 101 100 100 100 100 100 99 96 95 94 92 91 91 92 94 94 90 85 79 75 72 70 68 66 66 65 65 67 72 79 85 92 97 100 100 100 100 100 100 100 100 97 94 95 94 93 95 97 100 102 102 100 96 95 98 97 88 77 67 61 58 60 69
73 73 74 77 81 85 88 92 93 90 90 92 94 93 93 96 99 98 99 102 102 102 101 100 101 101 100 100 101 100 98 94 91 90 88 87 89 92 94 93 94 93 89 87 84 81 79 77 75 76 79 81 87 95 99 100 100 100 99 100 101 100 98 95 93 93 94 96 98 100 101 100 101 102 100 98 99 100 99 97 91 83 75 71 76
70 69 72 77 81 83 85 89 95 96 94 91 90 88 86 89 94 94 93 99 103 103 103 100 99 99 99 98 99 101 100 97 94 92 89 84 80 84 89 91 94 98 100 98 96 93 91 89 87 87 89 89 91 97 101 100 99 100 100 100 102 100 94 91 92 93 93 96 99 100 100 100 100 101 100 98 98 100 101 99 91 85 79 76 78
68 67 72 78 82 82 84 88 93 97 96 90 88 88 83 85 93 92 89 94 100 102 102 99 94 92 92 93 96 100 101 99 96 93 93 88 78 73 76 81 86 92 98 101 100 98 97 95 93 91 92 94 95 99 102 102 100 100 99 100 102 98 90 90 95 96 95 97 100 100 99 100 100 101 101 100 98 99 101 98 90 85 83 78 74
65 65 73 81 83 82 85 88 89 92 92 85 85 88 85 86 94 94 90 92 96 97 98 97 91 88 90 93 95 98 100 102 99 95 95 95 89 80 74 73 77 85 91 95 98 101 99 95 92 89 89 93 96 97 100 102 99 95 96 102 102 94 88 91 95 97 98 99 100 101 101 101 101 101 101 101 99 97 98 100 99 96 93 84 77
69 72 78 83 82 82 86 88 87 89 89 84 84 88 87 87 91 94 95 96 95 95 95 94 90 89 92 97 98 98 99 101 102 100 98 97 96 94 87 79 76 80 84 87 91 98 102 99 92 86 85 90 94 94 96 98 95 91 96 102 97 89 89 94 95 96 100 101 101 101 101 100 101 101 101 102 101 96 94 98 101 100 98 95 90
73 82 88 87 83 82 86 88 86 86 87 84 84 86 86 85 86 91 96 99 99 98 96 95 95 96 99 100 100 99 100 101 101 101 101 101 99 96 94 90 86 81 77 78 82 89 96 99 95 89 86 88 91 92 95 95 91 88 91 92 88 87 94 97 95 95 99 100 100 101 100 98 97 98 99 101 98 92 88 92 97 99 100 100 98
74 81 88 92 89 86 86 88 88 87 86 86 84 82 82 83 87 92 94 96 99 101 100 100 100 100 101 102 100 99 100 101 102 101 100 101 102 98 93 92 93 89 82 77 76 78 84 92 95 93 90 90 93 94 95 96 94 90 86 83 82 86 94 98 97 96 98 99 100 100 100 97 91 90 95 97 89 81 81 85 91 98 101 100 99
80 79 82 86 91 92 90 89 89 89 89 89 86 79 78 82 88 92 93 93 94 96 96 100 102 101 101 101 100 100 100 100 102 102 100 99 101 101 97 92 90 91 89 86 81 75 74 80 87 92 92 92 95 98 99 100 99 95 92 90 88 89 95 98 97 94 95 98 100 100 99 97 93 92 96 95 84 74 74 80 89 98 102 100 99
82 83 82 83 87 93 94 92 91 90 89 91 87 80 78 82 87 90 91 90 91 90 89 92 97 97 98 99 99 99 100 100 101 101 100 100 100 101 101 97 91 88 86 88 89 84 76 73 75 83 91 94 96 98 100 101 101 99 96 97 97 98 98 96 93 91 92 96 101 100 96 96 98 97 99 99 89 76 73 78 86 95 101 101 100
81 82 84 85 88 92 95 95 95 93 91 91 89 83 79 80 83 85 86 85 87 88 87 87 90 91 92 95 98 99 99 100 100 100 100 100 100 100 101 100 98 95 91 89 90 91 89 83 75 76 84 93 98 99 99 98 99 100 100 99 100 101 101 97 91 87 88 94 100 100 97 97 101 101 100 100 92 81 77 79 83 90 96 98 99
83 84 85 87 90 95 99 100 100 99 96 93 91 85 80 80 82 84 83 81 83 87 87 86 88 90 90 92 95 98 100 100 100 100 101 101 100 100 100 100 101 102 102 98 95 95 96 96 91 84 81 84 89 95 97 97 96 97 100 100 99 99 101 100 92 84 86 94 100 101 99 99 100 100 100 99 93 84 82 85 89 93 96 98 100
87 86 86 89 95 100 103 102 101 101 99 97 95 89 84 82 83 83 81 79 81 85 85 84 85 88 91 92 92 93 98 100 100 100 101 101 101 100 101 101 101 102 103 102 101 99 98 100 101 98 92 89 88 89 92 95 96 97 99 100 100 99 100 100 95 89 90 95 99 101 101 100 99 100 101 101 96 88 85 91 97 99 100 100 100
92 88 86 91 99 102 103 102 101 101 100 99 98 96 92 90 88 85 82 81 82 83 82 81 83 86 91 94 93 91 92 95 98 99 98 96 96 97 99 101 101 100 99 100 100 101 101 102 102 102 100 99 98 94 92 94 97 99 100 99 100 100 100 100 100 98 97 98 100 101 100 98 99 101 103 102 100 96 94 96 98 98 99 100 101
97 92 87 90 96 99 101 103 102 101 101 101 100 100 99 98 98 96 93 91 90 88 85 82 83 86 91 94 94 92 89 89 91 95 96 94 94 94 96 99 100 97 95 96 98 100 102 102 102 102 101 100 100 100 99 97 97 98 101 101 100 100 100 100 100 99 100 101 100 100 100 100 101 103 102 100 100 101 100 100 100 97 94 95 96
100 97 91 90 93 95 99 102 102 101 102 101 101 102 101 100 100 101 100 98 93 88 86 85 85 88 93 95 97 96 92 89 91 94 95 95 97 97 96 97 98 96 92 94 98 100 101 101 101 101 101 100 100 100 100 100 99 98 100 102 102 100 100 100 99 98 100 101 98 97 98 100 99 100 100 98 98 100 101 101 101 100 96 92 90
95 98 95 92 92 93 96 98 100 102 101 100 100 102 102 101 101 101 99 94 88 85 84 84 85 90 95 96 98 100 98 95 96 99 98 95 96 98 97 95 96 95 94 96 99 100 100 100 100 100 101 101 100 100 100 100 100 100 100 101 102 101 100 100 100 99 100 102 100 97 97 96 96 99 101 98 95 97 100 102 103 103 100 95 90
88 93 96 95 95 96 98 98 99 101 101 99 99 100 100 100 101 102 99 91 85 83 82 80 82 91 98 98 96 96 97 96 98 102 100 97 97 98 96 94 95 97 98 99 100 100 99 99 100 100 99 98 98 100 101 100 101 101 100 100 101 101 100 100 101 100 101 102 99 94 93 95 97 100 103 101 98 97 98 100 102 102 100 97 94
85 88 92 95 97 99 102 102 102 101 101 98 96 94 94 94 95 98 99 95 89 84 80 81 86 93 100 101 99 96 95 95 97 99 98 96 98 99 98 98 99 99 98 99 101 101 99 99 100 100 99 98 97 97 98 100 101 101 100 100 101 101 100 99 99 100 101 100 95 90 93 98 101 101 100 100 100 100 99 99 100 99 98 98 99
84 88 92 95 98 101 102 103 103 103 102 99 97 95 93 92 91 92 94 96 94 89 85 86 92 95 96 96 97 99 100 99 98 98 98 98 99 99 99 99 98 96 97 100 102 101 100 100 101 100 99 99 99 98 98 99 99 100 101 100 101 101 101 99 98 97 96 93 88 86 91 97 101 101 99 98 99 100 99 99 98 94 91 94 97
79 87 94 98 100 102 102 101 101 104 104 102 102 100 96 94 93 92 92 92 91 90 89 90 92 93 92 89 90 93 97 99 100 99 98 100 101 100 99 98 96 96 99 103 103 102 100 100 100 100 100 100 100 99 99 99 99 100 100 100 100 100 100 100 99 96 95 94 91 88 89 94 98 100 100 100 100 100 99 98 95 91 88 90 94
74 82 91 98 100 100 100 100 99 101 102 102 103 102 100 97 95 95 95 93 90 89 92 94 94 93 91 90 89 89 90 94 98 99 99 100 101 100 100 99 99 100 103 103 103 103 103 101 100 100 100 100 100 100 100 100 100 99 99 100 100 100 99 100 100 99 99 99 99 97 97 98 100 100 100 100 100 100 100 99 97 95 92 91 91
69 76 84 93 99 99 98 99 99 100 100 100 101 103 103 101 99 97 96 94 92 92 94 97 100 101 98 96 96 95 94 95 97 98 99 101 101 100 99 100 101 102 102 102 101 101 102 103 101 100 99 99 99 99 100 100 100 100 100 100 100 100 100 100 100 101 101 100 100 100 100 100 100 100 100 101 100 100 100 100 99 99 99 97 95
65 70 77 87 95 99 99 99 99 100 100 99 100 102 103 102 100 99 97 94 93 95 98 99 101 102 101 99 100 99 98 96 95 95 96 97 99 99 99 99 101 101 102 102 101 100 101 102 101 100 99 99 98 99 100 100 100 100 100 100 100 100 100 100 100 100 101 101 100 100 100 100 100 100 100 100 100 100 100 100 100 100 100 100 99
67 66 73 83 91 96 100 101 100 100 101 102 102 102 102 101 99 98 97 95 95 97 99 99 99 99 100 100 101 101 101 100 98 97 97 98 99 100 100 100 101 101 101 101 101 100 99 99 99 99 99 99 99 100 100 100 100 101 100 101 100 100 99 100 100 100 100 100 100 100 100 100 100 100 100 100 100 100 100 100 100 100 100 100 100
73 68 68 76 84 89 93 97 100 100 101 101 101 99 98 97 97 97 96 96 96 98 99 97 95 96 99 102 102 101 102 101 101 100 100 99 100 100 100 100 100 101 101 101 101 99 98 97 98 99 99 99 100 100 99 99 100 100 100 101 100 99 99 98 98 100 100 100 100 100 100 100 100 100 100 100 100 99 100 100 100 100 100 100 100
68 73 69 69 74 82 86 90 94 97 98 98 98 99 98 97 97 98 99 100 99 100 100 96 92 93 98 101 101 100 100 100 100 100 100 100 100 100 100 100 100 100 100 100 99 99 98 98 100 100 100 100 100 100 100 100 100 100 101 101 101 101 101 100 100 101 101 101 101 101 101 101 101 101 100 100 100 101 100 100 99 99 100 100 100
44 65 74 72 71 74 80 85 88 91 95 98 99 99 99 99 100 101 102 103 103 102 101 97 93 92 96 99 100 100 100 100 100 100 100 100 100 100 100 99 99 100 100 100 99 99 98 98 99 100 100 100 100 100 100 101 100 100 100 100 100 101 102 103 103 103 102 102 102 101 100 100 101 101 101 101 101 102 102 101 101 101 101 102 101
19 38 59 73 75 73 74 79 85 89 92 95 97 99 99 100 101 103 104 104 103 103 103 100 95 92 94 97 99 100 99 100 101 101 100 100 100 100 100 100 99 99 100 100 100 100 99 98 98 99 100 100 100 100 100 100 100 100 100 100 100 101 101 102 102 101 101 101 100 100 101 101 101 102 102 102 102 103 102 102 102 102 102 103 102
12 17 31 54 73 79 77 76 79 86 91 93 95 99 101 101 101 102 104 105 104 102 102 102 99 96 94 96 98 99 100 100 101 101 101 100 100 99 100 100 100 100 100 100 100 100 100 99 99 99 100 100 100 100 100 100 100 100 100 100 100 100 99 100 101 101 101 101 101 102 102 102 101 101 101 100 100 100 100 99 100 100 100 101 101
13 13 15 29 52 73 84 84 80 81 86 93 97 100 102 103 103 103 103 104 104 103 103 103 101 99 98 96 96 97 99 99 100 101 101 101 101 100 99 99 99 99 99 100 100 100 100 100 100 99 100 100 100 100 100 100 100 100 100 100 100 100 100 102 103 102 102 101 100 100 100 100 99 100 100 99 100 101 101 101 101 100 100 100 99
10 13 13 15 25 45 69 86 90 87 84 86 92 98 101 102 103 103 103 102 102 102 104 104 102 101 100 99 97 97 97 97 98 99 99 100 101 101 100 98 97 97 98 99 100 100 100 100 100 100 100 100 101 100 100 98 97 97 97 97 98 98 99 100 101 100 100 99 99 99 100 100 100 100 99 99 98 96 94 93 91 90 89 88 86
8 10 12 14 14 19 34 57 79 93 94 89 87 91 96 101 102 102 102 102 101 101 102 103 103 102 101 101 101 99 97 96 98 99 99 100 101 102 102 100 98 97 96 96 97 99 100 100 100 100 100 101 101 99 98 96 94 92 91 91 91 91 91 91 90 89 89 89 89 88 88 89 89 87 86 84 83 81 80 79 76 74 73 70 67
8 9 10 13 15 15 16 24 42 66 86 95 95 92 91 94 98 102 103 103 102 102 102 102 103 103 102 101 101 101 100 99 98 97 98 99 99 99 100 101 100 100 99 97 97 97 98 99 100 100 100 101 101 98 96 95 95 93 92 90 88 87 86 85 84 83 82 82 81 80 79 78 77 76 74 72 70 68 65 62 59 57 55 53 51
9 9 9 10 12 15 16 16 18 28 47 68 86 96 98 96 94 96 99 101 102 102 101 101 102 103 102 100 97 94 94 96 98 98 99 101 102 101 101 100 99 99 100 100 99 99 98 98 98 99 100 100 101 100 98 97 96 95 94 92 89 87 87 86 86 85 84 82 79 76 72 69 67 64 62 60 58 56 54 54 54 54 54 55 57
9 9 9 10 10 11 13 15 16 16 19 28 45 66 86 98 101 100 97 97 98 99 100 98 96 95 93 90 85 78 75 76 79 82 85 88 92 96 99 101 103 103 102 101 101 100 99 99 99 99 100 100 100 100 99 98 97 96 94 93 91 90 88 86 84 81 78 73 69 66 62 59 58 58 58 59 60 62 63 64 66 67 68 69 69
10 10 9 9 10 10 11 12 14 17 18 18 20 27 43 64 84 97 103 102 100 98 97 97 96 93 89 83 77 72 68 67 67 67 68 69 71 73 76 81 87 93 97 101 103 104 103 101 100 99 100 100 100 100 101 100 99 98 96 93 90 89 87 84 79 75 71 68 65 64 63 62 62 65 67 69 71 72 73 73 74 72 69 65 60
Wind_Speed
20 20 20 21 22 23 24 25 26 27 28 28 29 28 27 27 26 25 24 24 25 29 33 35 36 38 40 41 39 39 38 39 39 39 38 38 37 37 36 37 39 40 39 39 40 40 39 38 37 37 40 42 41 41 42 43 43 44 42 41 39 37 38 39 41 46 50 55 62 65 61 61 67 68 63 60 63 67 72 75 76 77 78 76 74
18 18 19 21 22 24 25 26 27 28 28 28 28 28 27 25 24 23 21 21 21 23 27 31 34 36 38 40 40 40 39 39 39 39 39 38 37 36 36 36 38 38 39 40 39 40 39 38 36 36 38 39 40 40 41 42 43 45 43 41 39 37 37 38 38 41 46 49 55 62 62 58 60 67 68 63 61 62 65 70 74 77 78 78 76
16 17 19 20 23 25 26 28 28 29 29 29 29 28 27 26 24 22 20 18 17 17 20 25 30 33 36 37 39 39 39 39 40 40 39 39 38 38 37 37 37 38 39 40 40 39 40 39 37 36 37 37 38 38 39 41 43 44 44 42 40 37 36 38 39 38 42 46 49 55 63 62 57 59 66 67 63 61 61 62 66 72 77 78 77
16 17 18 20 23 25 27 29 29 30 30 30 30 29 28 26 24 22 19 16 14 13 14 18 23 28 32 33 34 36 36 37 38 38 39 39 39 39 38 38 38 38 39 40 40 39 40 40 39 38 37 36 36 36 37 40 42 43 43 42 40 38 36 37 38 38 39 43 45 49 56 63 61 55 58 65 66 62 60 59 60 65 71 76 79
17 17 18 20 22 24 26 28 29 31 31 31 31 30 29 27 25 23 20 16 13 10 9 10 13 19 24 27 29 30 31 32 33 34 35 37 38 39 38 39 39 38 39 41 40 40 40 40 40 40 39 37 36 35 36 38 41 42 43 42 39 37 37 37 37 37 38 39 42 44 49 58 64 59 54 58 64 64 60 59 59 60 63 70 77
17 18 19 19 21 22 24 26 28 30 31 32 31 31 30 30 28 27 24 20 17 12 9 6 5 7 13 18 22 25 26 28 29 30 31 33 36 37 38 40 39 38 40 41 40 40 40 40 40 40 39 38 37 36 36 37 39 41 41 40 38 37 36 36 36 36 36 37 38 41 44 50 59 63 59 54 58 61 59 57 58 58 58 62 71
18 19 19 20 21 22 23 24 26 28 30 31 31 31 31 31 31 30 28 26 22 18 14 10 6 2 4 8 13 17 21 23 25 26 28 31 35 37 38 39 40 40 41 41 40 41 40 39 40 40 39 38 37 36 37 36 36 39 40 38 36 35 34 34 35 35 35 36 37 39 42 45 50 59 64 60 56 56 55 54 55 57 56 56 61
19 20 20 21 21 22 22 23 24 26 27 28 29 29 30 30 31 30 30 28 27 24 21 17 13 8 3 2 6 11 14 18 21 23 26 29 32 35 37 39 40 40 41 40 40 41 40 39 39 38 38 37 36 35 36 35 35 37 38 37 34 33 33 33 33 34 34 35 37 37 40 43 45 50 59 64 62 57 52 51 51 52 54 53 53
19 20 21 22 22 22 22 22 23 23 24 26 27 28 28 28 28 28 28 28 27 27 25 24 21 17 12 6 2 5 9 12 16 19 23 26 29 33 36 38 39 39 39 39 39 40 39 39 38 37 36 37 37 35 34 33 34 36 38 37 34 33 33 34 34 33 33 34 35 35 35 39 42 45 50 60 65 61 54 51 49 48 48 48 48
20 20 20 21 22 23 22 21 21 21 23 24 25 26 27 26 25 25 25 25 25 24 24 24 23 22 19 15 11 6 3 6 10 14 17 21 24 28 32 34 35 35 36 37 38 38 37 37 36 35 35 36 36 35 33 32 34 36 37 36 35 33 34 36 36 35 34 33 33 33 34 36 39 41 44 50 58 62 61 58 54 49 47 45 44
20 20 20 20 22 22 21 19 19 20 21 23 24 25 26 26 25 24 23 22 21 21 20 20 20 20 20 19 17 13 8 4 4 8 11 14 18 21 24 27 29 30 32 33 34 35 35 35 34 34 35 36 36 34 33 33 35 37 36 35 35 35 35 37 36 35 35 34 34 33 34 34 35 37 39 42 47 55 60 62 59 56 54 51 46
20 20 20 20 21 21 20 18 17 18 20 22 24 24 24 25 26 25 23 22 20 19 18 17 17 16 16 16 15 14 12 9 6 2 5 8 11 14 17 20 22 24 26 28 30 31 33 33 33 34 35 36 36 34 33 34 35 36 35 35 36 36 37 36 36 35 35 34 35 35 33 32 33 34 35 38 41 45 52 58 60 60 60 58 53
21 21 21 21 20 19 18 17 16 17 19 21 23 23 24 25 26 25 24 23 21 20 18 17 16 14 14 13 12 12 11 11 9 6 2 3 7 10 13 16 18 20 22 24 27 29 31 32 33 33 35 36 36 34 34 34 36 37 36 36 36 36 37 36 35 35 35 34 34 34 32 31 32 32 32 34 36 38 42 49 53 56 58 60 59
21 21 21 21 20 18 17 16 15 15 17 19 21 23 24 25 25 25 26 25 23 21 19 17 15 14 13 13 12 11 10 9 9 8 5 2 4 7 11 14 17 19 21 23 25 28 29 31 32 33 34 37 36 34 33 35 37 37 36 37 37 36 35 35 35 34 34 33 33 31 29 29 30 30 30 30 31 33 36 40 44 48 51 55 56
20 21 21 20 19 17 16 15 14 14 15 18 20 22 23 24 23 25 26 26 25 22 19 17 15 14 13 12 12 12 11 9 8 7 6 5 3 4 8 12 14 17 19 21 23 25 27 29 31 33 34 37 37 34 32 34 37 38 37 37 38 36 34 34 33 31 31 33 33 31 28 27 27 28 28 28 29 31 32 33 36 39 42 45 48
19 20 19 19 19 17 16 15 15 14 14 16 18 19 21 22 22 22 24 25 25 23 21 19 17 15 14 12 11 12 13 12 10 8 7 5 4 4 5 7 9 12 15 18 21 23 26 29 31 33 35 37 37 36 35 37 39 39 37 37 38 36 34 32 30 29 29 30 32 31 29 26 25 27 28 29 30 31 32 32 32 33 36 39 42
19 19 19 19 18 17 16 15 15 15 15 15 16 17 19 20 19 20 22 23 24 24 22 20 18 17 15 13 10 10 12 15 14 11 9 8 6 4 4 5 6 8 10 14 18 21 24 27 30 32 34 35 36 38 38 39 40 39 37 37 37 35 33 30 29 29 28 28 29 30 29 27 25 26 27 30 32 31 32 34 32 30 33 37 40
17 17 17 18 18 17 16 16 15 15 16 16 16 17 18 19 18 19 21 22 23 24 22 21 20 18 16 14 12 9 9 13 15 14 12 11 9 7 6 6 5 6 7 10 14 17 20 23 27 30 32 32 34 37 39 38 40 40 38 36 36 35 32 30 28 27 27 28 29 29 28 28 27 26 26 29 32 33 32 32 31 30 32 34 36
16 16 16 16 17 16 16 17 16 16 18 18 17 17 18 18 18 19 21 22 23 24 23 22 20 19 17 16 15 12 9 10 13 14 13 13 12 11 10 8 6 6 8 10 12 13 15 17 21 25 27 28 30 35 38 39 39 40 38 37 38 36 32 28 27 26 26 27 29 29 29 28 28 28 27 27 30 33 33 32 32 32 33 33 34
15 15 15 15 15 15 16 16 17 18 19 19 18 17 17 17 17 19 21 23 24 24 23 22 21 19 17 15 15 13 11 9 9 11 12 13 14 14 13 12 10 9 10 10 10 10 11 13 14 17 20 22 26 32 38 40 39 39 39 39 39 36 31 29 28 27 26 26 27 28 29 28 28 28 27 26 27 30 32 32 33 33 33 34 35
15 14 15 15 15 15 16 16 17 18 19 19 19 17 16 16 18 20 22 23 25 24 23 22 21 19 16 13 12 12 12 11 8 7 9 11 13 15 15 14 14 13 12 11 10 9 9 10 10 11 14 17 21 28 36 39 39 39 40 41 40 37 34 32 30 29 28 27 27 28 28 28 28 28 27 26 26 28 29 31 32 33 34 35 35
15 15 15 15 16 16 16 17 18 19 20 20 19 17 16 16 18 20 22 24 25 25 23 21 19 17 14 12 10 11 11 11 10 8 6 8 11 13 15 15 15 16 15 14 13 12 10 9 9 10 11 14 17 23 30 35 38 40 40 40 39 37 36 35 33 32 31 30 29 29 28 27 28 27 27 27 26 26 27 29 29 30 33 36 35
16 16 15 15 16 16 16 17 18 19 20 20 19 17 15 16 18 20 22 24 24 24 22 20 17 15 13 10 8 8 9 9 9 8 7 6 7 9 12 14 15 16 17 16 16 15 14 12 12 11 12 13 16 19 23 27 32 36 37 38 38 38 38 37 37 35 34 33 32 30 28 27 27 26 26 26 26 26 27 28 28 28 31 34 36
16 16 15 15 16 17 17 17 17 19 19 19 18 16 15 16 18 19 21 22 23 22 21 19 16 14 12 10 8 8 8 8 9 9 8 8 7 8 9 11 13 15 17 17 18 18 18 17 16 15 15 15 16 18 19 21 24 27 28 29 31 34 37 40 40 38 36 35 33 30 29 29 28 27 27 26 26 26 27 28 28 28 29 31 34
18 17 16 15 15 16 17 18 18 19 19 18 17 15 14 15 17 18 19 20 22 23 23 21 18 16 13 11 10 9 8 8 8 9 10 9 8 8 9 10 12 13 14 16 17 19 20 21 20 20 20 20 20 20 21 21 22 22 22 22 23 25 30 36 39 38 36 35 32 31 30 29 28 28 27 26 25 25 26 27 28 28 29 29 30
20 19 18 17 15 15 16 17 18 19 19 18 16 14 14 16 17 18 19 20 22 23 24 22 20 18 17 14 12 10 10 10 9 8 9 10 9 9 9 9 10 12 13 14 15 17 20 22 24 24 24 24 24 24 24 24 24 24 24 24 23 22 24 29 34 36 34 33 32 31 29 29 30 29 27 25 25 24 25 26 27 27 27 26 27
21 20 19 18 16 14 14 15 17 18 18 17 15 14 16 17 18 18 20 21 23 24 24 24 22 20 19 17 15 12 11 12 11 9 9 9 8 8 9 9 10 11 12 13 14 16 17 20 23 25 27 27 27 27 27 26 26 26 26 26 26 25 24 25 29 31 32 32 32 31 30 30 31 29 26 25 25 25 24 25 25 26 26 26 26
21 20 20 18 16 15 14 14 15 16 18 18 16 16 17 18 17 18 20 23 25 25 26 26 24 21 19 18 18 15 14 13 12 11 10 10 8 8 9 10 11 11 12 12 13 15 16 18 20 23 26 28 29 29 28 28 28 28 28 27 27 26 26 25 25 26 28 30 31 31 31 31 29 27 26 26 26 25 24 24 24 25 26 27 28
20 20 18 17 16 15 15 15 15 15 16 17 18 19 20 19 18 19 20 23 25 27 27 27 26 24 21 19 18 17 16 15 13 12 12 12 11 11 11 11 13 14 13 13 13 13 14 16 17 19 21 24 27 30 30 29 28 28 29 29 29 28 29 28 28 28 28 30 32 32 31 29 27 27 27 27 26 26 25 25 24 25 26 27 28
18 18 17 15 14 15 15 16 16 16 16 15 16 18 21 22 21 21 22 24 26 27 27 27 27 25 22 20 19 19 18 17 15 14 14 14 13 13 13 13 15 17 16 15 14 12 12 13 15 16 17 18 22 26 29 30 30 29 30 31 31 32 31 31 31 31 30 31 31 30 28 27 27 27 27 26 26 27 26 25 25 25 25 26 26
16 17 17 15 15 15 15 16 17 17 17 16 15 15 17 20 22 23 24 25 26 27 27 27 27 25 21 19 19 19 19 19 17 16 16 15 14 14 15 15 16 18 18 17 15 13 12 11 12 13 15 15 16 19 24 28 30 31 32 33 33 34 34 34 34 34 33 32 31 29 27 27 27 26 25 25 25 25 25 24 24 24 24 25 25
17 17 17 17 16 16 16 17 17 17 17 17 16 14 14 16 19 22 24 26 26 26 26 27 26 23 21 19 19 19 19 18 17 17 16 15 14 15 14 15 17 18 17 16 14 12 11 10 10 12 13 13 13 14 18 22 26 29 32 34 34 35 36 36 36 34 33 32 31 29 27 27 26 24 24 24 24 25 24 24 23 23 24 24 24
20 18 17 17 18 17 17 17 17 17 16 16 17 16 16 15 17 19 22 25 26 26 26 26 24 22 20 18 18 18 18 18 17 16 16 15 15 13 13 14 17 17 15 14 13 10 8 9 9 10 10 11 11 12 14 17 20 24 28 31 34 35 36 35 35 34 33 32 30 28 27 27 26 24 24 24 24 25 25 24 23 23 23 24 24
23 21 19 18 18 18 18 18 18 18 17 17 18 18 18 18 18 19 20 21 22 24 25 24 21 20 18 17 16 16 16 16 16 15 15 15 13 12 11 13 14 13 12 11 10 8 7 7 8 8 8 8 8 9 10 12 13 16 21 27 31 34 36 35 34 33 32 30 29 27 26 27 28 27 26 25 25 27 26 25 24 23 23 23 23
26 23 21 20 19 18 19 19 19 19 18 19 19 19 19 20 20 21 21 20 20 21 22 21 19 18 18 17 15 13 13 13 13 13 12 11 11 10 10 11 11 11 10 9 7 5 4 5 5 6 6 6 7 9 10 10 10 11 16 21 25 29 32 34 34 33 31 31 30 28 27 27 28 28 28 27 27 28 29 28 27 25 25 25 25
28 24 21 19 19 19 19 19 20 20 19 19 19 19 20 21 21 22 22 21 21 20 20 20 20 18 18 18 17 14 12 11 10 10 9 8 8 8 8 8 9 9 7 5 4 3 2 3 4 5 5 5 6 7 9 10 10 10 12 16 19 21 23 27 30 32 32 33 33 33 32 31 30 29 29 28 28 29 31 31 28 26 26 27 26
29 26 23 20 19 18 19 19 19 20 19 19 19 20 20 21 21 21 21 20 19 19 19 19 18 17 17 17 16 15 13 10 8 8 7 6 6 6 6 7 8 6 3 3 4 2 1 1 2 4 5 6 6 6 6 8 9 10 11 14 17 19 20 22 25 27 28 30 30 31 33 35 34 31 30 29 27 27 28 28 26 26 27 28 27
29 27 25 23 20 19 19 19 19 19 19 19 19 19 20 20 20 20 19 18 17 17 17 17 17 16 15 14 14 13 11 9 7 6 5 4 4 5 7 7 7 5 2 3 4 3 3 1 1 3 4 6 6 6 6 6 7 8 9 11 14 17 19 22 23 23 23 24 25 26 27 29 30 30 30 30 29 28 28 29 29 30 32 32 30
28 27 26 24 22 21 19 18 18 18 18 19 19 18 18 18 18 18 18 17 16 15 15 16 16 15 13 13 12 11 10 9 7 6 5 5 5 6 7 7 6 4 2 1 2 2 2 1 1 1 3 5 6 7 7 7 7 8 9 10 12 14 16 18 20 21 22 23 23 24 25 25 26 27 28 28 29 29 30 31 31 32 33 33 33
27 26 25 24 23 21 20 19 18 18 18 18 18 18 17 16 16 17 17 16 15 15 15 15 16 15 12 10 9 9 8 6 5 4 4 4 4 5 6 6 6 5 3 1 1 1 2 2 2 1 2 2 4 6 7 8 8 9 9 10 12 13 14 16 17 19 21 22 23 24 25 26 26 27 28 28 29 29 30 31 31 32 32 32 32
25 25 25 24 23 22 22 20 19 19 19 19 19 19 18 17 16 16 16 16 15 15 15 16 17 16 13 10 9 8 6 5 3 2 2 3 3 4 5 5 6 5 5 4 3 3 3 3 3 2 2 1 2 3 5 6 8 8 9 10 11 12 14 15 16 17 17 18 19 20 21 22 23 24 25 26 27 28 29 30 30 31 31 30 29
24 24 23 23 23 22 22 21 21 20 20 19 19 19 19 18 17 16 16 15 15 15 15 16 17 17 16 13 11 10 9 6 4 3 2 2 3 3 4 4 4 5 5 5 4 4 4 4 3 3 2 1 1 1 3 4 5 5 6 7 9 10 11 13 14 15 16 16 17 18 18 18 19 20 21 22 22 23 24 24 25 26 26 25 24
25 24 23 22 22 22 22 22 22 21 21 20 20 19 19 19 18 17 16 14 14 15 15 16 16 17 17 15 12 10 9 8 7 5 5 4 4 4 4 4 4 4 4 5 5 4 4 4 4 3 2 1 1 1 2 3 4 4 5 5 6 7 8 10 12 13 14 15 16 16 16 17 17 17 17 17 18 18 17 18 19 19 20 20 20
26 25 24 23 22 22 22 22 22 22 22 21 21 20 19 19 18 17 16 14 13 13 14 14 15 16 16 16 14 11 8 7 7 6 6 6 6 6 5 4 4 4 4 4 4 4 3 4 4 3 2 1 1 1 2 3 4 5 5 5 5 6 7 9 11 12 13 14 15 14 15 15 14 14 14 14 14 14 14 15 16 16 17 17 18
26 25 24 23 22 21 21 21 21 21 21 21 21 21 20 19 18 17 16 15 13 12 12 13 13 13 14 14 14 12 10 8 7 6 6 6 6 6 5 5 4 4 4 4 4 4 3 3 2 2 2 2 2 2 3 4 5 5 5 5 5 6 6 8 9 10 11 12 13 13 12 12 12 12 12 12 13 14 14 15 15 15 15 15 16
26 25 24 23 22 21 21 20 20 20 20 20 20 20 20 19 18 17 16 15 14 12 11 11 11 12 12 12 12 12 12 11 9 8 7 6 5 5 5 5 4 4 4 5 4 4 3 3 2 2 2 3 4 5 6 6 6 7 7 7 6 6 6 6 6 7 7 8 9 10 10 11 11 11 12 12 13 13 13 13 13 13 13 13 13
26 25 24 23 23 22 21 20 20 19 19 19 19 19 19 18 18 18 17 16 14 13 12 11 11 11 11 11 10 10 11 11 11 10 8 7 5 4 4 3 3 3 4 4 5 5 4 4 4 3 3 5 6 7 8 8 8 8 8 8 8 8 8 8 8 7 7 7 7 8 9 10 11 11 11 12 12 12 11 11 11 11 12 12 12
27 26 25 24 23 22 22 21 20 19 18 18 18 18 18 18 17 17 16 16 15 14 14 13 13 12 12 11 11 10 9 9 9 10 9 8 7 6 5 4 3 2 3 3 4 5 5 5 5 4 5 6 8 8 8 8 8 8 8 8 9 9 9 9 9 9 9 9 9 9 10 10 10 10 10 10 11 11 11 11 11 11 12 12 12
26 26 26 25 24 23 22 21 20 19 18 18 17 17 17 17 17 16 16 15 15 15 14 14 14 14 14 13 12 11 9 8 8 8 9 9 9 8 7 6 4 3 3 3 3 4 5 5 5 6 6 7 9 10 9 9 8 7 7 8 8 8 9 9 9 9 9 10 10 10 10 10 10 10 10 10 10 11 11 11 12 12 13 13 14
26 26 26 25 25 25 24 23 22 21 19 18 18 17 16 16 16 16 15 15 15 15 14 14 14 14 14 14 13 12 11 10 9 8 8 8 8 9 8 8 7 6 5 4 3 3 4 5 5 6 7 8 10 11 11 10 10 9 8 8 8 9 9 9 9 9 10 10 10 10 10 10 10 10 11 11 11 12 12 13 13 14 15 15 16
25 26 26 25 25 25 25 24 23 22 21 20 19 18 17 16 16 15 15 15 14 14 14 14 14 13 13 13 12 12 11 11 10 10 9 9 8 8 8 9 9 9 8 7 6 5 5 5 5 6 7 8 10 11 12 12 12 11 11 11 11 10 11 11 11 11 11 11 11 11 11 11 11 12 12 13 13 14 15 15 16 16 17 17 17
Wind_Direction
350 352 354 357 359 359 357 353 349 345 341 337 333 330 326 320 314 308 300 290 278 266 257 251 246 244 243 243 242 240 238 237 237 238 239 240 241 241 239 236 236 237 238 239 239 241 242 242 242 242 242 242 242 242 242 242 242 243 245 246 247 246 243 243 246 247 245 243 239 235 233 234 232 228 227 226 226 226 227 227 225 224 224 224 224
1 4 7 8 9 7 5 2 358 355 350 346 342 339 337 331 324 319 311 300 286 273 261 252 247 243 242 243 243 242 241 240 240 240 240 241 242 242 240 236 235 235 236 237 236 237 239 240 241 241 242 243 243 242 241 240 240 242 244 246 248 248 246 244 244 246 245 243 242 237 232 232 234 232 230 230 228 227 227 227 226 225 224 223 223
14 16 16 16 15 14 12 9 6 3 360 357 354 350 347 343 337 331 324 312 297 280 266 254 247 243 241 242 243 243 242 241 241 242 241 242 242 241 240 237 234 233 234 235 235 236 237 238 238 240 241 243 243 243 241 239 239 241 244 245 247 248 248 245 244 245 246 245 244 239 233 230 232 232 232 233 233 231 230 228 226 226 224 222 223
20 21 20 20 19 17 16 14 11 10 7 5 4 1 357 354 350 346 340 331 316 296 274 259 249 243 241 241 242 243 244 243 242 242 241 240 239 238 236 234 232 230 231 234 235 235 236 236 236 237 239 240 241 242 241 240 239 240 242 243 246 247 247 246 244 244 247 247 246 243 235 230 230 231 231 233 235 235 234 231 228 226 225 222 222
22 21 21 19 19 18 17 16 15 14 13 11 10 10 9 7 6 3 0 356 345 326 303 277 257 247 242 241 242 243 244 243 243 241 240 238 236 233 231 230 229 227 229 231 233 234 235 235 235 235 236 237 238 240 241 241 241 240 240 240 242 245 245 245 246 246 247 249 249 248 241 233 230 230 229 230 233 236 237 235 231 228 227 224 221
20 18 18 17 17 16 15 15 15 16 17 16 16 16 17 18 19 18 18 17 13 4 352 334 295 256 243 241 242 243 244 244 242 241 238 235 233 231 229 228 227 225 227 230 231 234 235 235 235 234 234 236 237 239 240 242 242 241 239 238 238 241 243 244 247 249 249 249 250 250 247 239 233 231 230 229 230 233 236 237 233 229 228 226 223
15 14 14 15 14 14 12 13 14 16 18 19 19 19 20 22 24 26 28 29 30 28 24 20 20 359 247 243 243 244 245 245 244 241 237 233 231 229 227 227 226 225 227 229 230 233 235 236 235 233 233 235 237 238 240 241 242 240 237 235 236 238 242 246 249 250 251 251 251 251 250 246 239 233 231 232 231 229 230 233 232 229 227 227 226
11 11 12 13 12 12 11 11 12 14 17 19 21 21 21 23 25 27 30 34 37 39 39 38 38 39 33 273 248 247 247 246 245 242 237 234 231 228 227 227 227 227 228 228 230 233 235 236 235 233 232 234 235 236 238 240 240 237 233 232 233 236 241 246 250 251 253 253 252 252 251 250 246 239 234 233 234 231 227 227 228 227 226 226 226
8 9 10 12 11 10 11 11 11 12 14 16 18 19 21 24 25 28 31 34 37 39 41 43 44 45 43 36 342 264 250 246 246 243 239 236 232 229 228 228 228 229 228 229 231 234 235 236 234 232 231 233 234 234 236 237 236 232 229 229 230 233 238 244 247 250 252 253 252 252 251 249 248 245 239 234 234 233 231 228 227 225 225 225 224
5 6 8 9 9 8 9 10 11 11 11 10 9 11 15 19 22 26 30 33 35 37 40 42 44 46 46 43 38 21 301 256 249 245 243 240 236 232 231 231 231 231 230 230 232 234 235 234 233 232 231 232 232 233 234 234 230 226 226 228 228 230 235 239 243 246 249 252 252 249 248 248 247 247 245 239 235 235 235 233 231 228 228 229 227
3 5 5 6 6 6 4 6 9 11 11 10 7 7 9 11 14 16 20 25 29 32 36 39 40 43 45 45 43 39 32 5 280 251 243 239 237 235 233 233 233 232 232 233 234 234 234 233 233 232 232 231 231 232 233 230 224 222 224 226 226 228 233 236 240 244 248 251 251 248 246 248 247 246 247 245 240 237 237 236 235 234 234 235 233
2 2 2 2 3 2 0 1 5 10 11 10 8 7 8 10 10 10 10 11 14 18 23 29 33 35 38 42 42 41 40 36 25 327 252 237 232 231 231 232 232 233 234 234 234 235 235 234 235 233 232 232 230 230 231 227 221 220 223 225 225 228 232 236 239 244 248 250 249 247 245 246 246 245 244 245 243 241 239 238 238 238 238 238 238
359 358 358 359 360 360 358 357 358 4 8 8 7 8 10 10 9 10 10 7 6 6 6 10 17 19 23 29 32 32 32 30 30 28 360 250 232 228 228 230 231 233 234 233 233 235 236 238 238 236 233 231 230 229 228 223 218 220 223 226 226 228 232 235 239 244 248 248 245 244 244 245 246 246 244 244 244 243 241 239 239 239 240 241 241
353 353 353 354 356 356 355 354 352 356 3 6 6 7 8 7 8 11 12 9 7 4 1 359 358 358 2 6 8 10 13 14 15 16 12 338 249 233 229 229 230 231 232 233 233 233 236 238 238 236 233 230 230 228 224 218 217 219 223 225 226 227 231 235 239 243 246 244 239 239 241 244 246 245 243 242 245 246 244 241 239 240 240 241 241
348 348 349 349 351 352 351 350 348 347 354 2 4 4 4 4 7 11 11 9 8 5 3 360 354 348 348 348 344 344 347 350 355 356 353 348 314 259 240 235 234 233 231 231 232 232 233 234 236 236 233 230 230 226 219 217 218 220 222 224 224 226 230 235 239 242 243 241 236 235 238 242 245 245 241 239 241 246 248 245 241 240 240 239 239
345 345 345 345 347 348 348 347 345 341 344 355 360 360 360 0 4 9 11 9 7 4 1 360 357 351 345 340 334 327 324 326 331 333 331 329 323 302 273 254 249 247 243 239 236 236 235 234 235 235 234 232 229 223 217 217 219 220 220 221 222 225 229 233 237 239 240 240 237 237 238 240 244 244 240 235 236 241 246 247 244 240 237 237 237
345 344 344 345 347 348 346 345 344 340 338 345 353 354 355 357 359 5 10 9 7 4 360 357 356 353 349 348 345 327 312 309 312 313 313 310 305 299 288 277 266 261 260 256 250 248 246 244 242 239 237 235 230 223 219 219 219 217 218 219 222 225 228 230 235 238 240 240 237 235 236 237 241 244 240 236 235 237 241 245 246 243 239 238 237
345 344 345 347 350 351 349 346 345 341 336 339 347 350 349 352 356 1 6 8 6 3 359 357 357 356 357 1 3 350 315 298 297 298 298 297 298 296 288 285 277 265 267 268 261 256 254 252 250 247 243 239 233 225 220 218 217 216 217 219 222 224 226 228 232 237 240 239 236 234 235 235 238 242 241 238 237 237 238 243 246 246 244 241 239
344 344 346 349 351 353 353 351 349 344 338 339 345 348 347 350 355 360 2 4 3 359 357 356 356 358 1 4 3 359 340 304 292 291 289 286 286 286 285 283 281 272 270 271 266 261 261 260 257 252 246 239 233 224 216 212 213 215 217 220 222 223 224 226 230 234 237 238 236 234 235 237 238 241 242 241 240 238 237 238 239 241 244 244 242
344 344 345 346 349 352 354 355 354 348 343 343 346 346 346 349 354 358 359 359 358 355 353 353 354 357 1 0 357 358 357 339 309 293 288 283 278 276 277 277 276 271 267 267 264 260 263 265 262 257 247 237 229 221 213 209 212 214 216 219 221 221 222 225 229 231 234 237 237 236 236 238 239 241 243 244 243 241 239 237 235 235 238 241 242
342 342 341 340 343 348 351 354 353 349 346 347 347 344 344 349 354 358 357 356 354 353 352 352 352 352 352 353 356 2 7 4 348 314 292 285 278 274 273 271 270 267 263 262 262 256 252 255 256 254 245 233 225 219 213 211 213 215 217 220 222 222 223 227 230 232 232 235 237 238 237 237 239 241 244 244 244 241 240 240 237 234 233 235 238
337 338 337 336 337 341 345 348 348 346 345 346 346 342 344 350 354 356 356 355 354 353 352 351 346 342 341 346 357 8 11 11 7 354 328 302 287 279 274 270 268 266 262 260 259 255 248 241 239 240 236 228 222 219 217 215 217 220 221 224 224 223 225 229 232 233 233 233 236 238 237 236 237 240 243 244 244 243 241 239 239 236 233 233 233
334 333 332 332 333 334 338 342 343 342 343 345 345 342 344 349 352 352 354 354 354 352 352 350 342 334 335 343 354 4 3 1 1 1 355 337 310 291 280 272 266 262 259 257 255 252 248 239 232 229 228 223 218 218 219 221 224 227 229 231 232 231 231 232 234 234 233 232 234 236 236 237 239 240 243 245 246 246 243 238 235 234 233 233 231
335 333 330 330 329 328 330 334 337 340 343 345 345 342 341 344 347 349 351 351 351 351 353 353 345 337 337 343 350 355 350 346 346 345 342 338 326 309 294 281 272 264 259 255 251 248 246 242 235 229 228 226 221 217 217 220 226 230 232 233 236 238 238 237 237 235 232 230 232 234 234 237 240 243 245 247 246 245 243 238 234 231 231 232 231
337 335 332 329 327 325 325 328 333 338 343 345 342 338 336 337 341 346 348 348 349 352 354 355 351 345 341 342 346 350 347 340 337 332 327 324 320 313 305 295 287 281 273 264 255 249 245 243 239 234 230 229 227 223 219 218 221 228 233 236 237 240 241 239 236 233 230 228 230 233 235 237 241 244 246 247 245 243 242 241 236 231 230 230 230
339 337 335 332 328 325 324 326 330 335 339 340 338 334 332 333 337 342 343 345 348 351 352 353 352 348 344 341 339 341 342 338 333 327 321 314 311 311 306 299 293 289 285 279 270 259 250 244 242 239 235 232 230 228 226 223 221 225 232 237 238 239 241 238 232 228 227 227 229 233 235 236 240 244 246 247 245 242 240 238 235 232 229 228 228
339 338 337 335 333 329 327 328 329 330 331 333 333 330 329 331 334 337 337 339 344 348 348 348 348 346 343 338 333 330 331 331 331 327 315 303 303 309 309 304 300 295 290 286 280 273 263 252 245 241 239 236 234 232 231 228 225 224 227 231 233 234 236 235 230 227 227 227 229 233 235 235 239 244 245 243 243 241 237 233 231 229 228 227 227
336 336 338 340 338 336 335 335 333 330 329 330 328 325 326 329 331 331 332 335 340 343 343 342 342 341 337 332 327 324 322 321 324 322 313 304 306 312 314 313 312 308 302 294 284 275 269 262 253 246 241 237 235 234 233 232 229 226 224 225 227 228 230 230 227 225 225 227 230 233 235 237 240 242 240 238 239 239 236 234 231 229 228 227 228
332 333 337 341 342 341 342 341 339 335 331 329 327 325 326 328 328 329 333 336 337 339 339 337 336 335 332 325 320 318 316 315 316 315 315 315 315 314 314 316 318 317 313 305 294 280 269 262 257 252 246 240 235 233 232 231 230 227 225 224 223 223 226 228 225 221 222 227 230 232 234 237 238 238 237 237 237 236 235 234 232 231 230 229 229
328 327 331 337 340 340 342 341 339 336 332 328 324 322 323 325 327 330 334 335 334 335 336 335 333 331 328 321 315 311 310 312 313 314 314 314 312 310 311 315 320 322 320 313 303 292 280 265 254 251 249 244 238 232 229 228 227 226 225 224 223 221 221 225 228 226 224 228 231 232 233 235 235 235 236 237 235 233 234 234 233 232 232 231 231
325 323 323 326 330 332 334 335 335 333 331 329 325 321 321 324 327 328 329 330 331 333 334 332 330 327 324 318 310 305 303 305 309 311 307 304 304 304 305 311 319 322 320 314 304 297 289 274 258 249 243 240 237 233 229 226 225 225 224 224 225 224 222 222 226 228 228 230 233 233 233 234 233 233 235 236 234 232 233 235 237 236 235 234 234
325 322 319 318 320 324 326 329 330 331 330 329 326 322 319 322 326 328 327 327 329 331 332 331 329 326 323 318 311 304 299 299 302 303 301 298 297 297 301 310 317 319 317 311 302 296 287 273 260 251 242 235 230 227 227 227 226 226 226 224 225 226 225 225 227 228 229 231 232 231 231 231 231 231 233 234 234 234 236 239 241 240 240 240 240
325 322 319 317 317 319 321 325 328 329 328 327 326 324 320 319 322 327 329 329 329 330 331 331 329 325 322 318 313 307 302 299 298 299 298 296 293 294 300 308 311 313 314 310 303 295 280 260 252 247 244 240 233 226 225 228 229 229 228 226 225 226 226 227 228 229 229 230 231 229 229 228 228 228 230 231 231 233 237 238 238 241 244 245 246
332 325 321 319 318 318 319 321 323 325 326 326 326 325 323 321 322 324 328 330 330 330 330 330 328 324 320 317 312 306 302 300 299 298 297 295 293 294 297 300 305 313 317 314 306 295 273 253 244 241 243 247 247 242 238 237 236 233 226 222 223 224 225 225 226 226 226 227 227 226 225 226 227 228 230 231 230 231 234 236 237 240 246 248 249
344 335 327 324 321 319 319 318 318 321 324 325 325 323 322 323 324 325 328 331 332 332 331 330 329 326 323 321 317 308 304 303 299 295 293 293 294 294 298 306 315 322 322 317 307 290 265 243 229 227 234 242 246 248 248 245 243 237 225 218 219 222 224 224 224 225 225 227 228 227 226 227 228 229 231 233 232 230 232 235 239 243 246 248 250
352 346 338 331 326 322 319 317 317 319 320 322 323 323 322 324 325 327 330 334 337 338 337 336 334 332 330 330 326 321 318 317 311 303 300 295 290 291 305 322 323 317 320 332 333 302 256 219 201 200 206 217 227 236 242 243 243 240 228 218 215 217 220 221 222 222 223 226 228 229 229 230 231 231 231 232 233 231 230 233 240 248 251 253 254
354 353 350 346 340 333 327 321 319 318 319 320 321 322 323 324 326 329 333 336 339 342 344 343 339 336 334 331 327 323 326 327 319 307 297 281 273 287 317 328 314 300 319 25 32 23 15 220 215 212 209 210 212 215 221 228 234 237 232 223 217 216 215 215 218 222 223 224 225 226 227 229 231 230 227 226 225 225 225 229 235 241 245 251 255
354 354 356 357 353 347 340 330 323 320 319 320 321 322 324 326 329 332 335 338 342 347 349 349 346 340 335 330 328 328 333 339 337 328 316 303 298 309 321 319 303 292 325 57 58 47 41 32 238 228 219 215 211 207 206 212 219 223 225 225 224 222 219 219 222 224 225 224 224 224 225 227 227 226 224 222 221 221 223 226 229 233 238 243 247
352 353 357 360 359 356 350 342 334 328 324 322 323 324 326 330 333 335 338 342 346 350 352 354 355 350 340 334 335 338 342 347 349 341 331 324 313 305 309 312 303 288 288 72 63 32 12 2 315 247 227 219 213 208 205 208 214 218 218 219 220 222 223 224 225 225 225 224 225 224 225 226 226 226 226 227 228 228 229 231 233 235 236 238 241
349 351 355 358 359 359 356 352 347 342 336 332 331 331 333 336 338 341 344 347 349 351 355 359 3 1 354 349 349 348 346 347 344 327 311 306 300 298 308 318 313 297 278 254 272 312 326 345 350 320 264 230 217 213 210 208 213 218 220 217 216 217 217 219 222 224 225 225 226 226 226 227 228 229 230 230 230 231 231 232 233 234 236 238 242
346 347 351 356 358 360 360 358 355 351 347 345 343 342 343 345 345 347 351 352 350 350 356 3 6 7 9 13 17 16 12 11 5 342 314 307 305 307 315 320 315 304 288 272 271 295 320 337 348 339 325 291 223 213 212 211 211 214 218 220 219 217 215 214 214 216 218 220 221 223 223 224 226 227 228 229 229 230 231 233 234 235 237 239 240
346 344 347 351 355 358 0 1 0 358 355 352 351 350 350 351 350 351 354 355 351 351 357 4 7 9 12 18 26 31 33 31 28 24 12 345 324 320 322 318 308 299 290 284 284 294 309 323 335 344 339 322 267 207 201 201 200 202 211 218 218 215 213 211 209 208 210 211 212 213 214 215 216 217 218 219 221 223 225 228 230 232 232 232 231
348 345 345 347 350 353 357 359 1 2 0 358 356 355 354 354 353 352 354 355 353 352 357 3 7 9 10 12 18 27 31 30 28 24 15 3 349 341 335 321 303 289 285 286 287 291 302 312 318 327 331 317 277 203 185 183 179 180 189 200 206 207 207 203 199 199 200 200 200 200 199 200 200 202 203 204 206 208 212 216 219 221 223 223 223
350 348 346 345 345 348 352 355 358 360 0 360 359 358 356 355 354 352 352 353 353 353 357 1 6 9 10 8 8 11 15 19 21 18 13 7 359 352 347 333 306 286 278 277 278 283 296 308 311 313 314 298 238 191 181 179 179 180 182 186 194 203 205 198 192 189 188 187 185 185 186 187 188 190 192 195 198 201 205 208 211 213 214 215 217
352 350 348 346 344 344 347 351 354 356 357 358 358 357 356 355 354 352 352 351 350 350 355 359 2 6 8 7 4 1 358 357 359 3 5 6 4 1 358 348 322 297 284 277 273 273 281 291 296 293 273 232 199 185 179 175 172 171 171 171 180 193 199 197 192 188 186 184 181 179 179 182 186 190 193 197 200 204 205 205 205 206 208 209 212
354 352 351 349 346 344 343 345 348 352 354 355 355 355 354 354 353 351 350 350 348 347 349 354 356 359 1 1 360 357 353 349 346 345 347 352 359 4 4 356 339 316 299 290 283 279 281 282 280 259 218 196 185 182 180 177 172 168 163 158 157 162 170 176 178 177 180 184 185 183 182 183 187 191 194 196 198 200 200 199 198 200 202 204 206
355 354 354 352 350 347 345 342 343 346 349 351 352 352 352 351 351 350 348 347 346 343 342 344 346 348 348 349 348 347 345 343 341 338 336 339 344 348 351 352 342 319 299 288 283 284 284 284 281 259 215 195 189 188 187 187 187 183 178 171 167 166 168 171 173 173 175 181 186 188 187 187 188 190 192 193 195 196 196 198 199 202 205 207 211
356 355 355 355 353 351 349 345 342 341 342 345 347 349 349 349 348 347 346 345 342 340 337 336 336 336 336 335 334 333 331 331 330 329 329 331 332 332 330 330 326 311 291 278 273 273 273 272 273 264 235 213 204 201 199 197 197 196 194 190 186 184 184 184 185 186 186 188 190 192 193 194 194 195 196 198 200 201 204 207 209 212 216 219 222
356 356 356 356 355 354 351 349 346 343 341 340 341 343 345 346 345 344 344 342 339 337 336 333 332 331 329 329 328 327 325 323 320 319 319 320 320 320 318 316 311 302 286 272 267 264 259 254 251 249 242 232 224 220 217 212 207 205 205 203 199 197 195 193 192 193 193 194 195 196 197 199 201 203 205 208 211 214 218 221 224 227 231 234 236
356 356 357 357 356 355 353 351 349 347 345 344 341 339 339 339 340 340 341 339 337 336 334 333 331 330 328 327 327 327 327 326 323 319 315 311 309 308 308 305 303 298 289 280 272 263 257 250 242 237 235 233 231 230 229 225 217 211 212 212 210 208 207 206 205 204 203 203 204 206 207 209 212 215 219 223 227 231 235 237 240 243 245 247 249
356 356 356 356 356 355 354 352 351 349 347 346 345 342 339 336 334 333 334 335 335 334 332 330 329 328 327 327 326 325 325 325 323 320 316 312 308 306 304 301 300 297 293 288 283 274 264 259 251 243 236 231 229 231 234 232 226 221 219 219 218 218 218 218 218 218 217 217 218 219 221 224 228 231 236 239 242 245 247 249 251 252 253 254 255